This demonstration page uses our WeatherBlox Daily Observations layout. Learn more.

Left ArrowRight Arrow

Hourly Observations for November 30, 2021

Temp ( °F °C ) Dew Point ( °F °C ) Humidity (%) Winds ( mph kmh ) Pressure ( in mb ) Visibility ( mi km ) Precip ( " mm )
12:53 am 00:53 Clear 37 2.8 13 -10.6 37 37 N N/A 29.95 1014 10 16 N/A
1:53 am 01:53 Clear 34 1.1 18 -7.8 52 52 N N/A 29.94 1014 10 16 N/A
2:53 am 02:53 Clear 32 undefined 18 -7.8 56 56 N N/A 29.93 1014 10 16 N/A
3:53 am 03:53 Mostly Clear 35 1.7 19 -7.2 52 52 N N/A 29.93 1014 10 16 N/A
4:53 am 04:53 Clear 35 1.7 20 -6.7 54 54 SSW 3 6 29.92 1013 10 16 N/A
5:53 am 05:53 Clear 37 2.8 23 -5 57 57 SW 3 6 29.93 1014 10 16 N/A
6:53 am 06:53 Clear 37 2.8 24 -4.4 59 59 WSW 5 7 29.96 1015 10 16 N/A
7:53 am 07:53 Sunny 36 2.2 25 -3.9 64 64 WSW 5 7 29.99 1016 10 16 N/A
8:53 am 08:53 Sunny 36 2.2 27 -2.8 70 70 N N/A 30.01 1016 10 16 N/A
9:53 am 09:53 Sunny 45 7.2 30 -1.1 56 56 W 6 9 30.04 1017 10 16 N/A
10:53 am 10:53 Sunny 47 8.3 32 undefined 56 56 WNW 12 19 30.07 1018 10 16 N/A
11:53 am 11:53 Sunny 49 9.4 32 undefined 52 52 WNW 8 13 30.07 1018 10 16 N/A
12:53 pm 12:53 Sunny 52 11.1 33 0.6 49 49 W 7 11 30.06 1018 10 16 N/A
1:53 pm 13:53 Sunny 54 12.2 32 undefined 43 43 VRB 7 11 30.05 1018 10 16 N/A
2:53 pm 14:53 Sunny 55 12.8 32 undefined 42 42 W 10 17 30.06 1018 10 16 N/A
3:53 pm 15:53 Sunny 54 12.2 33 0.6 45 45 W 8 13 30.07 1018 10 16 N/A
4:53 pm 16:53 Sunny 49 9.4 33 0.6 55 55 W 6 9 30.10 1019 10 16 N/A
5:53 pm 17:53 Clear 42 5.6 31 -0.6 65 65 SW 3 6 30.10 1019 10 16 N/A
6:53 pm 18:53 Clear 34 1.1 28 -2.2 79 79 N N/A 30.12 1020 10 16 N/A
7:53 pm 19:53 Clear 32 undefined 28 -2.2 85 85 N N/A 30.14 1021 10 16 N/A
8:53 pm 20:53 Clear 29 -1.7 26 -3.3 89 89 N N/A 30.14 1021 10 16 N/A
9:53 pm 21:53 Clear 27 -2.8 23 -5 85 85 N N/A 30.14 1021 10 16 N/A
10:53 pm 22:53 Clear 27 -2.8 24 -4.4 89 89 N N/A 30.16 1021 10 16 N/A
11:53 pm 23:53 Clear 25 -3.9 21 -6.1 85 85 N N/A 30.16 1022 10 16 N/A

Powered by AerisWeather